TimeMST,TemperatureF,Dew PointF,Humidity,Sea Level PressureIn,VisibilityMPH,Wind Direction,Wind SpeedMPH,Gust SpeedMPH,PrecipitationIn,Events,Conditions,WindDirDegrees,DateUTC
12:48 AM,-17.0,-20.9,82,30.53,-9999.0,West,4.6,-,N/A,,Unknown,280,2014-02-09 07:48:00
1:48 AM,-18.9,-24.0,78,30.52,-9999.0,WNW,6.9,-,N/A,,Unknown,300,2014-02-09 08:48:00
2:48 AM,-18.0,-24.0,74,30.50,-9999.0,WNW,4.6,-,N/A,,Unknown,290,2014-02-09 09:48:00
3:48 AM,-18.0,-23.1,78,30.49,-9999.0,Calm,Calm,-,N/A,,Unknown,0,2014-02-09 10:48:00
4:48 AM,-17.0,-20.9,82,30.48,-9999.0,Calm,Calm,-,N/A,,Unknown,0,2014-02-09 11:48:00
5:48 AM,-17.0,-20.9,82,30.50,-9999.0,West,3.5,-,N/A,,Unknown,270,2014-02-09 12:48:00
6:48 AM,-18.0,-23.1,78,30.53,-9999.0,West,3.5,-,N/A,,Unknown,280,2014-02-09 13:48:00
7:48 AM,-15.0,-20.0,78,30.56,-9999.0,Calm,Calm,-,N/A,,Unknown,0,2014-02-09 14:48:00
8:48 AM,-11.9,-17.0,78,30.56,-9999.0,Calm,Calm,-,N/A,,Unknown,0,2014-02-09 15:48:00
9:48 AM,-6.0,-11.0,79,30.53,-9999.0,Calm,Calm,-,N/A,,Unknown,0,2014-02-09 16:48:00
10:48 AM,-2.9,-8.0,79,30.53,-9999.0,ESE,5.8,-,N/A,,Unknown,110,2014-02-09 17:48:00
11:48 AM,-0.0,-5.1,79,30.52,-9999.0,ESE,4.6,-,N/A,,Unknown,110,2014-02-09 18:48:00
1:48 PM,5.0,-2.9,70,30.48,-9999.0,SSE,6.9,-,N/A,,Unknown,150,2014-02-09 20:48:00
2:48 PM,6.1,-2.9,67,30.47,-9999.0,South,9.2,-,N/A,,Unknown,180,2014-02-09 21:48:00
3:48 PM,5.0,-2.9,70,30.46,-9999.0,ESE,8.1,-,N/A,,Unknown,120,2014-02-09 22:48:00
4:48 PM,3.0,-4.0,73,30.46,-9999.0,ESE,6.9,-,N/A,,Unknown,120,2014-02-09 23:48:00
5:48 PM,-2.0,-8.0,76,30.48,-9999.0,ESE,4.6,-,N/A,,Unknown,110,2014-02-10 00:48:00
6:48 PM,-5.1,-9.0,83,30.48,-9999.0,East,5.8,-,N/A,,Unknown,100,2014-02-10 01:48:00
7:48 PM,-4.0,-9.0,79,30.45,-9999.0,ESE,6.9,-,N/A,,Unknown,110,2014-02-10 02:48:00
8:48 PM,-7.1,-11.0,83,30.43,-9999.0,ESE,5.8,-,N/A,,Unknown,120,2014-02-10 03:48:00
9:48 PM,-6.0,-11.0,79,30.41,-9999.0,ESE,5.8,-,N/A,,Unknown,110,2014-02-10 04:48:00
10:48 PM,-7.1,-11.9,79,30.40,-9999.0,East,4.6,-,N/A,,Unknown,90,2014-02-10 05:48:00
11:48 PM,-6.0,-11.0,79,30.38,-9999.0,East,5.8,-,N/A,,Unknown,100,2014-02-10 06:48:00